Location: *
(49.9853°N, 3.5569°E)
Time: 02:47:13
(UTC+00:00)

Cosmos 405 Rocket - Pass Details

Date: 14 December 2019
Orbit: 490 x 554 km, 81.3° (Epoch: 23 January)

Event Time Altitude Azimuth Distance (km) Brightness Sun altitude
Rises 18:34:03 0° 341° (NNW) 2,582 6.4 -26.0°
Reaches altitude 10° 18:36:15 10° 334° (NNW) 1,696 5.5 -26.4°
Enters shadow 18:38:19 27° 312° (NW) 971 4.4 -26.7°
Exits shadow 18:44:18 - 190° (S) 2,132 6.0 -27.7°
Sets 18:45:24 0° 188° (S) 2,583 6.4 -27.9°
